When you browse on this site, cookies collect data to enhance your experience and personalize the content and advertising you see.
Visit our Privacy Policy to learn more. By continuing to use the site, you agree to this use of cookies and data.
  • In Lithuania
  • List of Countries
  • For 7 days
  • Water Temperature
  • Satellite Maps
  • Weather Map
  • Weather Widgets
  • user-avatar
    Login

    Hourly Weather Erandol

    Today, 25 May, Saturday

    Time Temperature Precipitation Wind Pressure Humidity
    00:00 +39°C° 0 mm 5 mps 737 mmHg 27%
    01:00 +37°C° 0 mm 5 mps 736 mmHg 29%
    02:00 +37°C° 0 mm 5 mps 736 mmHg 32%
    03:00 +36°C° 0 mm 5 mps 736 mmHg 35%
    04:00 +35°C° 0 mm 5 mps 736 mmHg 38%
    05:00 +34°C° 0 mm 5 mps 737 mmHg 42%
    06:00 +35°C° 0 mm 5 mps 737 mmHg 41%
    07:00 +36°C° 0 mm 5 mps 737 mmHg 40%
    08:00 +38°C° 0 mm 6 mps 737 mmHg 40%
    09:00 +40°C° 0 mm 6 mps 737 mmHg 34%
    10:00 +42°C° 0 mm 5 mps 737 mmHg 29%
    11:00 +43°C° 0 mm 5 mps 737 mmHg 24%
    12:00 +45°C° 0 mm 5 mps 736 mmHg 20%
    13:00 +47°C° 0 mm 5 mps 736 mmHg 17%
    14:00 +48°C° 0 mm 5 mps 735 mmHg 14%
    15:00 +48°C° 0 mm 5 mps 735 mmHg 14%
    16:00 +48°C° 0 mm 5 mps 734 mmHg 13%
    17:00 +48°C° 0 mm 5 mps 734 mmHg 13%
    18:00 +47°C° 0 mm 5 mps 734 mmHg 14%
    19:00 +46°C° 0 mm 5 mps 734 mmHg 15%
    20:00 +45°C° 0 mm 5 mps 734 mmHg 16%
    21:00 +43°C° 0 mm 5 mps 735 mmHg 18%
    22:00 +42°C° 0 mm 6 mps 735 mmHg 19%
    23:00 +40°C° 0 mm 6 mps 735 mmHg 21%

    Tomorrow, 26 May, Sunday

    Time Temperature Precipitation Wind Pressure Humidity
    00:00 +39°C° 0 mm 6 mps 735 mmHg 23%
    01:00 +37°C° 0 mm 5 mps 735 mmHg 24%
    02:00 +37°C° 0 mm 5 mps 734 mmHg 25%
    03:00 +36°C° 0 mm 5 mps 735 mmHg 28%
    04:00 +35°C° 0 mm 5 mps 735 mmHg 31%
    05:00 +34°C° 0 mm 4 mps 735 mmHg 34%
    06:00 +35°C° 0 mm 5 mps 735 mmHg 34%
    07:00 +36°C° 0 mm 5 mps 736 mmHg 35%
    08:00 +37°C° 0 mm 5 mps 736 mmHg 36%
    09:00 +39°C° 0 mm 5 mps 736 mmHg 33%
    10:00 +41°C° 0 mm 5 mps 736 mmHg 29%
    11:00 +43°C° 0 mm 5 mps 736 mmHg 26%
    12:00 +45°C° 0 mm 5 mps 735 mmHg 23%
    13:00 +46°C° 0 mm 5 mps 735 mmHg 20%
    14:00 +48°C° 0 mm 5 mps 734 mmHg 16%
    15:00 +48°C° 0 mm 5 mps 734 mmHg 16%
    16:00 +48°C° 0 mm 6 mps 734 mmHg 15%
    17:00 +48°C° 0 mm 6 mps 733 mmHg 15%
    18:00 +47°C° 0 mm 6 mps 734 mmHg 16%
    19:00 +46°C° 0 mm 6 mps 734 mmHg 18%
    20:00 +45°C° 0 mm 7 mps 735 mmHg 19%
    21:00 +44°C° 0 mm 6 mps 735 mmHg 21%
    22:00 +42°C° 0 mm 6 mps 735 mmHg 22%
    23:00 +41°C° 0 mm 6 mps 736 mmHg 24%

    Day after tomorrow, 27 May, Monday

    Time Temperature Precipitation Wind Pressure Humidity
    00:00 +39°C° 0 mm 6 mps 735 mmHg 28%
    01:00 +38°C° 0 mm 6 mps 735 mmHg 33%
    02:00 +36°C° 0 mm 6 mps 735 mmHg 37%
    03:00 +35°C° 0 mm 6 mps 735 mmHg 38%
    04:00 +35°C° 0 mm 6 mps 735 mmHg 38%
    05:00 +35°C° 0 mm 5 mps 735 mmHg 39%
    06:00 +35°C° 0 mm 6 mps 736 mmHg 38%
    07:00 +36°C° 0 mm 6 mps 736 mmHg 38%
    08:00 +38°C° 0 mm 6 mps 737 mmHg 37%
    09:00 +40°C° 0 mm 6 mps 737 mmHg 33%
    10:00 +43°C° 0 mm 7 mps 737 mmHg 28%
    11:00 +45°C° 0 mm 7 mps 737 mmHg 23%
    12:00 +46°C° 0 mm 7 mps 736 mmHg 20%
    13:00 +47°C° 0 mm 7 mps 735 mmHg 17%
    14:00 +49°C° 0 mm 7 mps 735 mmHg 15%
    15:00 +47°C° 0 mm 7 mps 734 mmHg 14%
    16:00 +47°C° 0 mm 7 mps 734 mmHg 13%
    17:00 +47°C° 0 mm 7 mps 734 mmHg 12%
    18:00 +46°C° 0 mm 7 mps 734 mmHg 13%
    19:00 +45°C° 0 mm 7 mps 735 mmHg 14%
    20:00 +44°C° 0 mm 6 mps 735 mmHg 15%
    21:00 +42°C° 0 mm 6 mps 736 mmHg 17%
    22:00 +42°C° 0 mm 5 mps 736 mmHg 19%
    23:00 +41°C° 0 mm 5 mps 736 mmHg 20%

    28 May, Tuesday

    Time Temperature Precipitation Wind Pressure Humidity
    00:00 +39°C° 0 mm 5 mps 736 mmHg 24%
    01:00 +37°C° 0 mm 5 mps 736 mmHg 28%
    02:00 +36°C° 0 mm 6 mps 735 mmHg 32%
    03:00 +35°C° 0 mm 5 mps 735 mmHg 35%
    04:00 +35°C° 0 mm 5 mps 735 mmHg 38%
    05:00 +34°C° 0 mm 4 mps 735 mmHg 42%
    06:00 +35°C° 0 mm 5 mps 736 mmHg 42%
    07:00 +35°C° 0 mm 6 mps 736 mmHg 43%
    08:00 +36°C° 0 mm 7 mps 737 mmHg 43%
    09:00 +39°C° 0 mm 7 mps 737 mmHg 37%
    10:00 +41°C° 0 mm 7 mps 737 mmHg 30%
    11:00 +45°C° 0 mm 7 mps 736 mmHg 24%
    12:00 +46°C° 0 mm 7 mps 736 mmHg 20%
    13:00 +47°C° 0 mm 6 mps 735 mmHg 17%
    14:00 +48°C° 0 mm 6 mps 734 mmHg 14%
    15:00 +48°C° 0 mm 6 mps 734 mmHg 13%
    16:00 +48°C° 0 mm 6 mps 734 mmHg 13%
    17:00 +48°C° 0 mm 6 mps 733 mmHg 13%
    18:00 +47°C° 0 mm 6 mps 734 mmHg 14%
    19:00 +46°C° 0 mm 6 mps 734 mmHg 16%
    20:00 +45°C° 0 mm 7 mps 735 mmHg 18%
    21:00 +44°C° 0 mm 6 mps 735 mmHg 20%
    22:00 +42°C° 0 mm 6 mps 735 mmHg 21%
    23:00 +41°C° 0 mm 6 mps 735 mmHg 23%

    29 May, Wednesday

    Time Temperature Precipitation Wind Pressure Humidity
    00:00 +40°C° 0 mm 6 mps 735 mmHg 27%
    01:00 +39°C° 0 mm 6 mps 734 mmHg 30%
    02:00 +38°C° 0 mm 6 mps 734 mmHg 33%
    03:00 +38°C° 0 mm 6 mps 734 mmHg 36%
    04:00 +36°C° 0 mm 6 mps 734 mmHg 39%
    05:00 +35°C° 0 mm 6 mps 735 mmHg 42%
    06:00 +36°C° 0 mm 6 mps 735 mmHg 40%
    07:00 +38°C° 0 mm 6 mps 735 mmHg 38%
    08:00 +38°C° 0 mm 6 mps 736 mmHg 36%
    09:00 +40°C° 0 mm 6 mps 736 mmHg 31%
    10:00 +42°C° 0 mm 6 mps 736 mmHg 26%
    11:00 +45°C° 0 mm 6 mps 735 mmHg 21%
    12:00 +46°C° 0 mm 6 mps 735 mmHg 19%
    13:00 +47°C° 0 mm 6 mps 734 mmHg 17%
    14:00 +48°C° 0 mm 6 mps 733 mmHg 15%
    15:00 +48°C° 0 mm 5 mps 733 mmHg 14%
    16:00 +48°C° 0 mm 5 mps 733 mmHg 14%
    17:00 +48°C° 0 mm 5 mps 732 mmHg 13%
    18:00 +47°C° 0 mm 5 mps 733 mmHg 14%
    19:00 +46°C° 0 mm 6 mps 733 mmHg 14%
    20:00 +45°C° 0 mm 7 mps 734 mmHg 15%
    21:00 +44°C° 0 mm 7 mps 734 mmHg 18%
    22:00 +43°C° 0 mm 7 mps 734 mmHg 20%
    23:00 +41°C° 0 mm 7 mps 735 mmHg 23%

    30 May, Thursday

    Time Temperature Precipitation Wind Pressure Humidity
    00:00 +40°C° 0 mm 6 mps 734 mmHg 26%
    01:00 +39°C° 0 mm 6 mps 734 mmHg 29%
    02:00 +38°C° 0 mm 6 mps 733 mmHg 31%
    03:00 +38°C° 0 mm 6 mps 733 mmHg 34%
    04:00 +36°C° 0 mm 5 mps 734 mmHg 37%
    05:00 +35°C° 0 mm 5 mps 734 mmHg 40%
    06:00 +36°C° 0 mm 6 mps 734 mmHg 39%
    07:00 +38°C° 0 mm 6 mps 735 mmHg 38%
    08:00 +39°C° 0 mm 6 mps 735 mmHg 36%
    09:00 +41°C° 0 mm 6 mps 735 mmHg 31%
    10:00 +44°C° 0 mm 6 mps 735 mmHg 26%
    11:00 +46°C° 0 mm 6 mps 735 mmHg 21%
    12:00 +47°C° 0 mm 5 mps 734 mmHg 18%
    13:00 +48°C° 0 mm 5 mps 733 mmHg 16%
    14:00 +49°C° 0 mm 5 mps 733 mmHg 13%
    15:00 +48°C° 0 mm 5 mps 732 mmHg 13%
    16:00 +48°C° 0 mm 5 mps 732 mmHg 13%
    17:00 +48°C° 0 mm 5 mps 732 mmHg 13%
    18:00 +47°C° 0 mm 6 mps 732 mmHg 15%
    19:00 +46°C° 0 mm 7 mps 733 mmHg 17%
    20:00 +45°C° 0 mm 8 mps 734 mmHg 18%
    21:00 +44°C° 0 mm 7 mps 734 mmHg 20%
    22:00 +41°C° 0 mm 7 mps 734 mmHg 23%
    23:00 +40°C° 0 mm 7 mps 734 mmHg 25%
    Show more